Location: Ethel Rock
(53.4667°N, 4.5667°W)
Time: 01:21:35
(UTC+00:00)

Cosmos 2278 - Pass Details

Date: 24 October 2020
Orbit: 842 x 851 km, 71.1° (Epoch: 26 November)

Event Time Altitude Azimuth Distance (km) Brightness Sun altitude
Rises 05:57:26 0° 326° (NW) 3,414 6.5 -10.3°
Reaches altitude 10° 05:59:56 10° 322° (NW) 2,474 5.7 -9.9°
Maximum altitude 06:05:26 55° 247° (WSW) 1,013 3.8 -9.1°
Drops below altitude 10° 06:10:55 10° 171° (S) 2,455 6.4 -8.3°
Sets 06:13:23 0° 167° (SSE) 3,386 7.2 -7.9°
